Regional Weather Roundup
Issued by NWS

Home | Current Version | Previous Version | Graphics & Text | Print | Product List | Glossary On
Versions: 1 2 3 4 5 6 7 8 9 10 11 12 13 14 15 16 17 18 19 20 21 22 23 24 25 26 27 28 29 30 31 32 33 34 35 36 37 38 39 40 41 42 43 44 45 46 47 48 49 50
000
ASUS45 KSLC 010210
RWRUT

UTAH REGIONAL WEATHER ROUNDUP
NATIONAL WEATHER SERVICE SALT LAKE CITY UT
800 PM MDT MON AUG 31 2015

UTZ001>011-023>025-010300-

NORTHERN UTAH

CITY           SKY/WX    TMP DP  RH WIND       PRES   REMARKS
BRIGHAM CITY   CLEAR     81  33  17 E5        29.96F
HILL AFB       CLEAR     79  38  23 E1        29.99F
LOGAN          CLEAR     80  37  21 S5        29.97F
OGDEN          CLEAR     80  37  21 CALM      29.96F
PROVO AIRPORT  PTCLDY    77  55  47 NW10      29.97S
SALT LAKE CITY PTCLDY    82  42  24 N6        29.94F
VERNAL         MOCLDY    75  42  30 SE9       30.10R
WENDOVER       CLEAR     82  28  14 W3        29.94F
HEBER CITY     CLEAR     72  41  33 CALM      30.05S
WEST JORDAN    CLEAR     81  41  24 NW3       29.99F

$$

UTZ012>022-026-027-010300-

SOUTHERN/CENTRAL UTAH

CITY           SKY/WX    TMP DP  RH WIND       PRES   REMARKS
BLANDING       CLOUDY    73  47  38 CALM      30.21S
BRYCE CANYON   PTCLDY    66  47  50 NE14      30.27R
CEDAR CITY     CLEAR     78  37  22 SW12      30.06S
DELTA          PTCLDY    85  28  12 NE3       29.97F
HANKSVILLE     CLOUDY    79  46  31 SE6       30.01F
MILFORD        CLEAR     83  34  17 SW15      29.99S
MOAB/CYNLANDS  CLEAR     80  46  30 SW9       30.00S
PRICE          PTCLDY    70  52  52 E8        30.12S
ST GEORGE      CLEAR     95  46  18 W7        29.85S HX  91
KANAB          MOCLDY    73  54  49 SW5       30.10S

$$

REGIONAL REPORTS     COLORADO/ARIZONA

CITY           SKY/WX    TMP DP  RH WIND       PRES   REMARKS
CRAIG, CO      CLOUDY    60  48  64 VRB3      30.21F
GRAND JUNCTION MOCLDY    74  60  61 E3        30.04F
RIFLE          MOCLDY    72  46  39 CALM      30.14R
MONTROSE       CLOUDY    71  54  54 S5        30.14F
CORTEZ         CLEAR     73  46  38 CALM      30.14S
PAGE, AZ       MOCLDY    81  53  37 S10       30.01S
GRAND CANYON   PTCLDY    66  53  63 VRB5        N/A
KINGMAN        CLEAR     90  47  22 SW13      29.91F
FLAGSTAFF      MOCLDY    62  53  72 E6        30.28S

$$

REGIONAL REPORTS    NEVADA/IDAHO/WYOMING

CITY           SKY/WX    TMP DP  RH WIND       PRES   REMARKS
LAS VEGAS, NV  PTCLDY    99  40  13 SW9       29.73S HX  94
ELY            CLEAR     78  28  16 S9        30.06F
ELKO           CLEAR     82  27  13 NW9       29.95F
POCATELLO, ID  CLEAR     71  32  23 SW5       29.98F
BURLEY         PTCLDY    67  39  35 W5        29.95F
EVANSTON, WY   CLEAR     69  29  22 W10       30.17S
ROCK SPRINGS   PTCLDY    67  40  37 SW10      30.15S
KEMMERER       CLEAR     64  25  22 W8        30.18S

$$



USA.gov is the U.S. government's official web portal to all federal, state and local government web resources and services.